Hourly Weather Bolshoe Selo

Today, 23 July, Friday

Time Temperature Precipitation Wind Pressure Humidity
00:00 +13°C° 0 mm 3 mps 741 mmHg 61%
01:00 +12°C° 0 mm 3 mps 741 mmHg 62%
02:00 +12°C° 0 mm 3 mps 741 mmHg 62%
03:00 +12°C° 0 mm 2 mps 741 mmHg 63%
04:00 +12°C° 0 mm 2 mps 741 mmHg 64%
05:00 +13°C° 0 mm 2 mps 741 mmHg 65%
06:00 +13°C° 0 mm 2 mps 741 mmHg 66%
07:00 +14°C° 0 mm 3 mps 741 mmHg 61%
08:00 +18°C° 0 mm 3 mps 741 mmHg 55%
09:00 +20°C° 0 mm 4 mps 741 mmHg 50%
10:00 +21°C° 0 mm 4 mps 741 mmHg 48%
11:00 +22°C° 0 mm 5 mps 740 mmHg 45%
12:00 +23°C° 0 mm 5 mps 740 mmHg 43%
13:00 +23°C° 0 mm 5 mps 740 mmHg 43%
14:00 +23°C° 0 mm 5 mps 739 mmHg 43%
15:00 +23°C° 0 mm 4 mps 739 mmHg 44%
16:00 +23°C° 0 mm 4 mps 739 mmHg 48%
17:00 +22°C° 0 mm 4 mps 739 mmHg 51%
18:00 +21°C° 0 mm 4 mps 739 mmHg 55%
19:00 +20°C° 0 mm 4 mps 739 mmHg 60%
20:00 +18°C° 0 mm 3 mps 740 mmHg 64%
21:00 +17°C° 0 mm 3 mps 740 mmHg 68%
22:00 +16°C° 0 mm 3 mps 740 mmHg 73%
23:00 +14°C° 0 mm 3 mps 740 mmHg 77%

Tomorrow, 24 July, Saturday

Time Temperature Precipitation Wind Pressure Humidity
00:00 +13°C° 0 mm 3 mps 740 mmHg 81%
01:00 +13°C° 0 mm 3 mps 741 mmHg 79%
02:00 +14°C° 0 mm 3 mps 741 mmHg 78%
03:00 +14°C° 0 mm 3 mps 741 mmHg 76%
04:00 +14°C° 0 mm 3 mps 741 mmHg 76%
05:00 +14°C° 0 mm 3 mps 742 mmHg 76%
06:00 +14°C° 0 mm 3 mps 742 mmHg 76%
07:00 +16°C° 0 mm 3 mps 742 mmHg 68%
08:00 +18°C° 0 mm 4 mps 743 mmHg 59%
09:00 +19°C° 0 mm 4 mps 743 mmHg 51%
10:00 +20°C° 0 mm 4 mps 743 mmHg 47%
11:00 +21°C° 0 mm 4 mps 743 mmHg 43%
12:00 +22°C° 0 mm 4 mps 744 mmHg 39%
13:00 +21°C° 0 mm 4 mps 744 mmHg 41%
14:00 +21°C° 0 mm 3 mps 744 mmHg 43%
15:00 +20°C° 0 mm 3 mps 745 mmHg 45%
16:00 +20°C° 0 mm 3 mps 745 mmHg 47%
17:00 +20°C° 0 mm 3 mps 745 mmHg 48%
18:00 +20°C° 0 mm 3 mps 746 mmHg 49%
19:00 +18°C° 0 mm 3 mps 746 mmHg 54%
20:00 +17°C° 0 mm 2 mps 746 mmHg 59%
21:00 +15°C° 0 mm 2 mps 747 mmHg 63%
22:00 +15°C° 0 mm 2 mps 747 mmHg 65%
23:00 +14°C° 0 mm 1 mps 747 mmHg 66%

Day after tomorrow, 25 July, Sunday

Time Temperature Precipitation Wind Pressure Humidity
00:00 +14°C° 0 mm 1 mps 748 mmHg 67%
01:00 +14°C° 0 mm 1 mps 748 mmHg 66%
02:00 +14°C° 0 mm 1 mps 748 mmHg 65%
03:00 +14°C° 0 mm 1 mps 748 mmHg 63%
04:00 +14°C° 0 mm 1 mps 749 mmHg 63%
05:00 +14°C° 0 mm 1 mps 749 mmHg 63%
06:00 +15°C° 0 mm 1 mps 749 mmHg 62%
07:00 +16°C° 0 mm 1 mps 750 mmHg 59%
08:00 +16°C° 0 mm 0 mps 750 mmHg 57%
09:00 +17°C° 0 mm 0 mps 750 mmHg 54%
10:00 +20°C° 0 mm 1 mps 750 mmHg 49%
11:00 +22°C° 0 mm 1 mps 750 mmHg 45%
12:00 +23°C° 0 mm 1 mps 751 mmHg 40%
13:00 +23°C° 0 mm 1 mps 750 mmHg 40%
14:00 +23°C° 0 mm 1 mps 750 mmHg 40%
15:00 +23°C° 0 mm 1 mps 750 mmHg 40%
16:00 +23°C° 0 mm 1 mps 750 mmHg 41%
17:00 +23°C° 0 mm 1 mps 751 mmHg 42%
18:00 +23°C° 0 mm 1 mps 751 mmHg 42%
19:00 +22°C° 0 mm 1 mps 751 mmHg 47%
20:00 +20°C° 0 mm 1 mps 751 mmHg 51%
21:00 +18°C° 0 mm 1 mps 751 mmHg 55%
22:00 +16°C° 0 mm 1 mps 751 mmHg 57%
23:00 +16°C° 0 mm 1 mps 752 mmHg 59%

26 July, Monday

Time Temperature Precipitation Wind Pressure Humidity
00:00 +15°C° 0 mm 1 mps 752 mmHg 60%
01:00 +15°C° 0 mm 1 mps 752 mmHg 61%
02:00 +15°C° 0 mm 1 mps 752 mmHg 61%
03:00 +14°C° 0 mm 1 mps 752 mmHg 62%
04:00 +15°C° 0 mm 1 mps 752 mmHg 61%
05:00 +16°C° 0 mm 1 mps 752 mmHg 60%
06:00 +18°C° 0 mm 1 mps 753 mmHg 59%
07:00 +19°C° 0 mm 1 mps 753 mmHg 55%
08:00 +21°C° 0 mm 1 mps 753 mmHg 50%
09:00 +22°C° 0 mm 1 mps 753 mmHg 46%
10:00 +23°C° 0 mm 2 mps 753 mmHg 43%
11:00 +25°C° 0 mm 2 mps 753 mmHg 39%
12:00 +26°C° 0 mm 2 mps 753 mmHg 35%
13:00 +26°C° 0 mm 2 mps 753 mmHg 34%
14:00 +27°C° 0 mm 2 mps 752 mmHg 33%
15:00 +27°C° 0 mm 2 mps 752 mmHg 32%
16:00 +27°C° 0 mm 2 mps 752 mmHg 35%
17:00 +27°C° 0 mm 2 mps 752 mmHg 37%
18:00 +26°C° 0 mm 1 mps 752 mmHg 40%
19:00 +25°C° 0 mm 1 mps 752 mmHg 44%
20:00 +23°C° 0 mm 1 mps 752 mmHg 48%
21:00 +21°C° 0 mm 1 mps 752 mmHg 53%
22:00 +20°C° 0 mm 1 mps 752 mmHg 54%
23:00 +19°C° 0 mm 1 mps 752 mmHg 56%

27 July, Tuesday

Time Temperature Precipitation Wind Pressure Humidity
00:00 +18°C° 0 mm 1 mps 752 mmHg 58%
01:00 +18°C° 0 mm 1 mps 752 mmHg 57%
02:00 +18°C° 0 mm 1 mps 752 mmHg 56%
03:00 +18°C° 0 mm 1 mps 752 mmHg 56%
04:00 +19°C° 0 mm 1 mps 752 mmHg 57%
05:00 +19°C° 0 mm 1 mps 752 mmHg 58%
06:00 +19°C° 0 mm 1 mps 752 mmHg 59%
07:00 +20°C° 0 mm 2 mps 752 mmHg 54%
08:00 +23°C° 0 mm 2 mps 752 mmHg 50%
09:00 +25°C° 0 mm 2 mps 752 mmHg 45%
10:00 +26°C° 0 mm 2 mps 752 mmHg 42%
11:00 +27°C° 0 mm 2 mps 752 mmHg 38%
12:00 +28°C° 0 mm 2 mps 752 mmHg 34%
13:00 +29°C° 0 mm 2 mps 751 mmHg 33%
14:00 +29°C° 0 mm 2 mps 751 mmHg 32%
15:00 +29°C° 0 mm 2 mps 751 mmHg 31%
16:00 +28°C° 0 mm 2 mps 751 mmHg 34%
17:00 +28°C° 0 mm 2 mps 750 mmHg 37%
18:00 +27°C° 0 mm 2 mps 750 mmHg 40%
19:00 +26°C° 0 mm 2 mps 750 mmHg 43%
20:00 +24°C° 0 mm 1 mps 750 mmHg 47%
21:00 +22°C° 0 mm 1 mps 750 mmHg 50%
22:00 +21°C° 0 mm 1 mps 750 mmHg 52%
23:00 +21°C° 0 mm 1 mps 750 mmHg 53%

28 July, Wednesday

Time Temperature Precipitation Wind Pressure Humidity
00:00 +20°C° 0 mm 1 mps 750 mmHg 55%
01:00 +20°C° 0 mm 1 mps 750 mmHg 56%
02:00 +19°C° 0 mm 1 mps 750 mmHg 56%
03:00 +19°C° 0 mm 1 mps 750 mmHg 57%
04:00 +19°C° 0 mm 1 mps 750 mmHg 57%
05:00 +20°C° 0 mm 1 mps 750 mmHg 58%
06:00 +20°C° 0 mm 1 mps 750 mmHg 59%
07:00 +22°C° 0 mm 1 mps 750 mmHg 53%
08:00 +24°C° 0 mm 2 mps 750 mmHg 47%
09:00 +26°C° 0 mm 2 mps 750 mmHg 41%
10:00 +28°C° 0 mm 2 mps 749 mmHg 38%
11:00 +29°C° 0 mm 2 mps 749 mmHg 34%
12:00 +30°C° 0 mm 3 mps 749 mmHg 30%
13:00 +30°C° 0 mm 3 mps 748 mmHg 29%
14:00 +31°C° 0 mm 3 mps 748 mmHg 28%
15:00 +32°C° 0 mm 4 mps 748 mmHg 27%
16:00 +29°C° 0 mm 3 mps 747 mmHg 33%
17:00 +28°C° 0 mm 3 mps 747 mmHg 39%
18:00 +27°C° 0 mm 2 mps 747 mmHg 45%
19:00 +25°C° 0 mm 2 mps 747 mmHg 50%
20:00 +23°C° 0 mm 2 mps 747 mmHg 55%
21:00 +21°C° 0 mm 2 mps 747 mmHg 60%
22:00 +21°C° 0 mm 2 mps 747 mmHg 60%
23:00 +21°C° 0 mm 2 mps 747 mmHg 60%
Show more

We Need Your Consent

Meteoprog and our Service Providers may store and access personal data such as cookies, device identifiers or other similar technologies on your device and process such data to personalise content and ads, as well as provide social media features and to analyse the traffic.

  • Store and/or access information on your device

    Cookies, device identifiers or other information can be stored or accessed on your device for the purposes indicated above.

  • Personalised ads and content, ad and content measurement, audience insights, and products development

    Ads and content can be personalised based on a profile. More data can be added to better personalise ads and content. Ad and content performance can be measured. Insights about the audience who saw the ads and content can be derived. Such data can be used to develop or improve user’s experience, systems and software.

By clicking ‘I Agree’ you will allow the use of indicated cookies, device identifiers, web beacons or other similar technologies. Your settings can be changed in the browser on your device.

For certain purposes, legitimate interests may be relied on, rather than consent. You can read more about this in our Privacy and Cookie Policy.